Flag for Austria Weather past 2 weeks in Enns, Upper Austria, Austria

Now
46 °F

Overcast.


Feels Like: N/A
Forecast: 32 / 56 °F
Wind: N/A

Location: Linz / Hoersching-Flughafen

Current Time: Apr 18, 2015 at 9:35:16 PM

Latest Report: Apr 18, 2015 at 8:00 PM


Visibility: 31 mi

Pressure: 30.22 "Hg

Humidity: 62%

Dew point: 34 °F

Location of EnnsLocation

Historic Weather in Enns — Graph

°F

Enns temperature yesterday

Maximum temperature yesterday: 58 °F (at 1:00 PM)
Minimum temperature yesterday: 47 °F (at 11:00 PM)
Average temperature yesterday: 54 °F

Past Weeks' High & Low Weather Summary

 TemperatureHumidityPressure
High73 °F (Apr 16, 3:00 PM)95% (Apr 10, 7:00 AM)30.63 "Hg (Apr 10, 7:00 AM)
Low32 °F (Apr 4, 2:00 AM)27% (Apr 10, 6:00 PM)29.83 "Hg (Apr 17, 5:00 PM)
Average49 °F63%30.22 "Hg
* Reported Apr 3 8:00 PM — Apr 18 8:00 PM, Enns, Weather by CustomWeather, © 2015

Note: Actual official high and low records may vary slightly from our data, if they occured in-between our weather recording intervals... More about our weather records

Advertising

Enns weather history for previous 24 hours

 ConditionsComfort  
Time TempWeatherWind HumidityBarometerVisibility
8:00 PM
Sat, Apr 18
46 °FOvercast.N/A62%30.22 "Hg31 mi
7:00 PM49 °FPartly sunny.N/A53%30.20 "Hg28 mi
6:00 PM51 °FPassing clouds.N/A47%30.19 "Hg22 mi
5:00 PM51 °FScattered clouds.6 mph39%30.19 "Hg19 mi
4:00 PM51 °FOvercast.5 mph43%30.19 "Hg18 mi
3:00 PM49 °FPartly sunny.5 mph41%30.20 "Hg25 mi
2:00 PM49 °FOvercast.7 mph45%30.20 "Hg25 mi
1:00 PM51 °FPartly sunny.5 mph48%30.19 "Hg9 mi
12:00 PM47 °FScattered clouds.5 mph56%30.19 "Hg22 mi
11:00 AM46 °FPartly sunny.N/A65%30.19 "Hg25 mi
10:00 AM47 °FScattered clouds.N/A63%30.16 "Hg17 mi
9:00 AM43 °FOvercast.3 mph68%30.16 "Hg25 mi
8:00 AM43 °FOvercast.N/A72%30.15 "Hg22 mi
7:00 AM43 °FOvercast.N/A70%30.14 "Hg28 mi
6:00 AM43 °FOvercast.N/A71%30.12 "Hg25 mi
5:00 AM44 °FOvercast.N/A77%30.10 "Hg25 mi
4:00 AM44 °FOvercast.N/A69%30.09 "Hg28 mi
3:00 AM45 °FRain showers. Overcast.N/A69%30.08 "Hg28 mi
2:00 AM46 °FOvercast.N/A63%30.08 "Hg31 mi
1:00 AM46 °FOvercast.5 mph62%30.06 "Hg25 mi
12:00 AM47 °FLight rain. Overcast.N/A92%30.04 "Hg3 mi
11:00 PM
Fri, Apr 17
47 °FLight rain. Overcast.N/A95%30.00 "Hg3 mi
10:00 PM47 °FLight rain. Overcast.N/A91%29.97 "Hg4 mi
9:00 PM48 °FHeavy rain. Overcast.5 mph89%29.94 "Hg3 mi
Weather by CustomWeather, © 2015

See weather overviewHow to use our weather pages